Time,TemperatureF,DewpointF,PressureIn,WindDirection,WindDirectionDegrees,WindSpeedMPH,WindSpeedGustMPH,Humidity,HourlyPrecipIn,Conditions,Clouds,dailyrainin,SoftwareType,DateUTC
2013-05-29 00:04:00,48.9,43.0,30.17,South,178,0.0,0.0,80,0.00,,,0.00,weatherlink.com 1.10,2013-05-29 04:04:00,
2013-05-29 00:19:00,48.9,43.0,30.17,South,178,0.0,0.0,81,0.00,,,0.00,weatherlink.com 1.10,2013-05-29 04:19:00,
2013-05-29 00:35:00,48.7,43.0,30.17,South,178,0.0,0.0,82,0.00,,,0.00,weatherlink.com 1.10,2013-05-29 04:35:00,
2013-05-29 00:50:00,48.4,43.0,30.17,South,178,0.0,0.0,82,0.00,,,0.00,weatherlink.com 1.10,2013-05-29 04:50:00,
2013-05-29 01:05:00,48.1,44.0,30.17,South,178,0.0,0.0,84,0.00,,,0.00,weatherlink.com 1.10,2013-05-29 05:05:00,
2013-05-29 01:20:00,47.9,44.0,30.16,South,178,0.0,0.0,85,0.00,,,0.00,weatherlink.com 1.10,2013-05-29 05:20:00,
2013-05-29 01:35:00,47.7,44.0,30.16,South,178,0.0,0.0,86,0.00,,,0.00,weatherlink.com 1.10,2013-05-29 05:35:00,
2013-05-29 01:50:00,47.6,44.0,30.16,South,178,0.0,0.0,87,0.00,,,0.00,weatherlink.com 1.10,2013-05-29 05:50:00,
2013-05-29 02:05:00,47.4,44.0,30.15,South,178,0.0,0.0,87,0.00,,,0.00,weatherlink.com 1.10,2013-05-29 06:05:00,
2013-05-29 02:20:00,47.2,44.0,30.15,South,178,0.0,0.0,88,0.00,,,0.00,weatherlink.com 1.10,2013-05-29 06:20:00,
2013-05-29 02:35:00,47.1,44.0,30.15,South,178,0.0,0.0,88,0.00,,,0.00,weatherlink.com 1.10,2013-05-29 06:35:00,
2013-05-29 02:50:00,47.2,44.0,30.15,South,178,0.0,0.0,88,0.00,,,0.00,weatherlink.com 1.10,2013-05-29 06:50:00,
2013-05-29 03:05:00,47.3,44.0,30.14,South,178,0.0,0.0,89,0.00,,,0.00,weatherlink.com 1.10,2013-05-29 07:05:00,
2013-05-29 03:20:00,47.4,44.0,30.14,South,178,0.0,0.0,89,0.00,,,0.00,weatherlink.com 1.10,2013-05-29 07:20:00,
2013-05-29 03:35:00,47.6,45.0,30.14,South,178,0.0,0.0,89,0.00,,,0.00,weatherlink.com 1.10,2013-05-29 07:35:00,
2013-05-29 03:50:00,47.8,45.0,30.13,East,93,0.0,0.0,88,0.00,,,0.00,weatherlink.com 1.10,2013-05-29 07:50:00,
2013-05-29 04:05:00,48.0,45.0,30.14,East,93,0.0,0.0,88,0.00,,,0.00,weatherlink.com 1.10,2013-05-29 08:05:00,
2013-05-29 04:20:00,48.1,44.0,30.14,East,93,0.0,0.0,87,0.00,,,0.00,weatherlink.com 1.10,2013-05-29 08:20:00,
2013-05-29 04:35:00,48.2,45.0,30.14,East,93,0.0,0.0,87,0.00,,,0.00,weatherlink.com 1.10,2013-05-29 08:35:00,
2013-05-29 04:50:00,48.3,45.0,30.15,East,93,0.0,0.0,87,0.00,,,0.00,weatherlink.com 1.10,2013-05-29 08:50:00,
2013-05-29 05:05:00,48.3,45.0,30.14,East,93,0.0,0.0,88,0.00,,,0.00,weatherlink.com 1.10,2013-05-29 09:05:00,
2013-05-29 05:21:00,48.4,45.0,30.14,East,93,0.0,0.0,89,0.00,,,0.00,weatherlink.com 1.10,2013-05-29 09:21:00,
2013-05-29 05:35:00,48.5,45.0,30.14,East,93,0.0,0.0,87,0.00,,,0.00,weatherlink.com 1.10,2013-05-29 09:35:00,
2013-05-29 05:50:00,48.7,45.0,30.15,NE,52,0.0,0.0,86,0.00,,,0.00,weatherlink.com 1.10,2013-05-29 09:50:00,
2013-05-29 06:05:00,48.9,45.0,30.15,NE,52,0.0,0.0,85,0.00,,,0.00,weatherlink.com 1.10,2013-05-29 10:05:00,
2013-05-29 06:20:00,49.1,45.0,30.15,NE,52,0.0,0.0,85,0.00,,,0.00,weatherlink.com 1.10,2013-05-29 10:20:00,
2013-05-29 06:35:00,49.4,45.0,30.14,NE,52,0.0,0.0,86,0.00,,,0.00,weatherlink.com 1.10,2013-05-29 10:35:00,
2013-05-29 06:50:00,49.3,46.0,30.14,NE,52,0.0,0.0,88,0.00,,,0.00,weatherlink.com 1.10,2013-05-29 10:50:00,
2013-05-29 07:05:00,48.8,45.0,30.14,NE,52,0.0,0.0,88,0.00,,,0.00,weatherlink.com 1.10,2013-05-29 11:05:00,
2013-05-29 07:20:00,48.6,46.0,30.14,NE,52,0.0,0.0,90,0.00,,,0.00,weatherlink.com 1.10,2013-05-29 11:20:00,
2013-05-29 07:35:00,48.6,46.0,30.15,NE,52,0.0,0.0,90,0.01,,,0.01,weatherlink.com 1.10,2013-05-29 11:35:00,
2013-05-29 07:50:00,48.7,46.0,30.14,NE,52,0.0,0.0,91,0.01,,,0.01,weatherlink.com 1.10,2013-05-29 11:50:00,
2013-05-29 08:05:00,48.8,47.0,30.14,NE,52,0.0,0.0,92,0.01,,,0.01,weatherlink.com 1.10,2013-05-29 12:05:00,
2013-05-29 08:20:00,48.9,47.0,30.14,NE,52,0.0,0.0,92,0.01,,,0.01,weatherlink.com 1.10,2013-05-29 12:20:00,
2013-05-29 08:35:00,49.0,47.0,30.14,NE,52,0.0,0.0,93,0.00,,,0.01,weatherlink.com 1.10,2013-05-29 12:35:00,
2013-05-29 08:50:00,48.9,47.0,30.14,NE,52,0.0,0.0,92,0.00,,,0.01,weatherlink.com 1.10,2013-05-29 12:50:00,
2013-05-29 09:05:00,49.0,47.0,30.14,NE,47,0.0,3.0,93,0.01,,,0.02,weatherlink.com 1.10,2013-05-29 13:05:00,
2013-05-29 09:20:00,49.0,47.0,30.13,NNE,26,0.0,1.0,94,0.01,,,0.02,weatherlink.com 1.10,2013-05-29 13:20:00,
2013-05-29 09:35:00,49.0,47.0,30.13,NNE,19,0.0,2.0,94,0.01,,,0.02,weatherlink.com 1.10,2013-05-29 13:35:00,
2013-05-29 09:50:00,49.0,47.0,30.13,NNE,31,0.0,2.0,93,0.01,,,0.02,weatherlink.com 1.10,2013-05-29 13:50:00,
2013-05-29 10:06:00,49.2,48.0,30.12,ENE,64,2.0,3.0,94,0.00,,,0.02,weatherlink.com 1.10,2013-05-29 14:06:00,
2013-05-29 10:21:00,49.5,48.0,30.12,NE,46,0.0,3.0,94,0.00,,,0.02,weatherlink.com 1.10,2013-05-29 14:21:00,
2013-05-29 10:36:00,49.9,48.0,30.11,NE,46,0.0,1.0,94,0.00,,,0.02,weatherlink.com 1.10,2013-05-29 14:36:00,
2013-05-29 10:51:00,50.3,49.0,30.10,NE,40,0.0,0.0,94,0.01,,,0.03,weatherlink.com 1.10,2013-05-29 14:51:00,
2013-05-29 11:06:00,50.6,49.0,30.10,NE,40,0.0,0.0,94,0.02,,,0.04,weatherlink.com 1.10,2013-05-29 15:06:00,
2013-05-29 11:21:00,50.7,49.0,30.10,NE,40,0.0,1.0,94,0.04,,,0.06,weatherlink.com 1.10,2013-05-29 15:21:00,
2013-05-29 11:36:00,50.9,49.0,30.09,NE,46,0.0,2.0,94,0.04,,,0.06,weatherlink.com 1.10,2013-05-29 15:36:00,
2013-05-29 11:51:00,51.2,50.0,30.09,North,5,0.0,1.0,95,0.04,,,0.07,weatherlink.com 1.10,2013-05-29 15:51:00,
2013-05-29 12:05:00,51.5,50.0,30.08,NNE,29,0.0,1.0,95,0.04,,,0.08,weatherlink.com 1.10,2013-05-29 16:05:00,
2013-05-29 12:21:00,51.7,50.0,30.08,North,360,0.0,3.0,95,0.04,,,0.10,weatherlink.com 1.10,2013-05-29 16:21:00,
2013-05-29 12:36:00,52.0,51.0,30.08,North,355,0.0,3.0,95,0.04,,,0.10,weatherlink.com 1.10,2013-05-29 16:36:00,
2013-05-29 12:51:00,52.3,51.0,30.08,NE,36,0.0,4.0,94,0.03,,,0.10,weatherlink.com 1.10,2013-05-29 16:51:00,
2013-05-29 13:06:00,52.8,51.0,30.08,NE,39,0.0,4.0,94,0.02,,,0.10,weatherlink.com 1.10,2013-05-29 17:06:00,
2013-05-29 13:21:00,53.2,51.0,30.08,North,350,0.0,1.0,93,0.00,,,0.10,weatherlink.com 1.10,2013-05-29 17:21:00,
2013-05-29 13:36:00,53.0,51.0,30.08,North,355,0.0,1.0,93,0.01,,,0.11,weatherlink.com 1.10,2013-05-29 17:36:00,
2013-05-29 13:51:00,53.3,51.0,30.07,North,355,0.0,0.0,93,0.01,,,0.11,weatherlink.com 1.10,2013-05-29 17:51:00,
2013-05-29 14:06:00,53.4,51.0,30.07,North,350,0.0,0.0,92,0.01,,,0.11,weatherlink.com 1.10,2013-05-29 18:06:00,
2013-05-29 14:21:00,53.8,52.0,30.07,North,350,0.0,1.0,93,0.01,,,0.11,weatherlink.com 1.10,2013-05-29 18:21:00,
2013-05-29 14:36:00,54.1,52.0,30.06,North,351,0.0,1.0,93,0.00,,,0.11,weatherlink.com 1.10,2013-05-29 18:36:00,
2013-05-29 14:51:00,54.4,53.0,30.06,North,351,0.0,0.0,93,0.00,,,0.11,weatherlink.com 1.10,2013-05-29 18:51:00,
2013-05-29 15:07:00,55.0,53.0,30.05,North,351,0.0,0.0,93,0.00,,,0.11,weatherlink.com 1.10,2013-05-29 19:07:00,
2013-05-29 15:21:00,55.4,54.0,30.05,North,351,0.0,0.0,93,0.00,,,0.11,weatherlink.com 1.10,2013-05-29 19:21:00,
2013-05-29 15:36:00,55.5,53.0,30.05,North,351,0.0,0.0,92,0.00,,,0.11,weatherlink.com 1.10,2013-05-29 19:36:00,
2013-05-29 15:51:00,55.4,53.0,30.05,North,351,0.0,0.0,92,0.00,,,0.11,weatherlink.com 1.10,2013-05-29 19:51:00,
2013-05-29 16:06:00,55.4,53.0,30.05,North,351,0.0,0.0,92,0.00,,,0.11,weatherlink.com 1.10,2013-05-29 20:06:00,
2013-05-29 16:21:00,55.5,54.0,30.04,North,351,0.0,0.0,93,0.00,,,0.11,weatherlink.com 1.10,2013-05-29 20:21:00,
2013-05-29 16:36:00,55.6,54.0,30.04,North,351,0.0,0.0,93,0.00,,,0.11,weatherlink.com 1.10,2013-05-29 20:36:00,
2013-05-29 16:51:00,56.1,54.0,30.03,North,351,0.0,0.0,93,0.00,,,0.11,weatherlink.com 1.10,2013-05-29 20:51:00,
2013-05-29 17:06:00,56.2,54.0,30.03,WNW,291,0.0,0.0,92,0.00,,,0.11,weatherlink.com 1.10,2013-05-29 21:06:00,
2013-05-29 17:21:00,56.2,54.0,30.03,WNW,291,0.0,0.0,92,0.00,,,0.11,weatherlink.com 1.10,2013-05-29 21:21:00,
2013-05-29 17:36:00,56.3,54.0,30.03,WNW,291,0.0,0.0,92,0.00,,,0.11,weatherlink.com 1.10,2013-05-29 21:36:00,
2013-05-29 17:51:00,56.2,54.0,30.02,WNW,291,0.0,0.0,92,0.00,,,0.11,weatherlink.com 1.10,2013-05-29 21:51:00,
2013-05-29 18:07:00,56.2,54.0,30.02,WNW,291,0.0,0.0,92,0.00,,,0.11,weatherlink.com 1.10,2013-05-29 22:07:00,
2013-05-29 18:22:00,56.2,54.0,30.02,WNW,291,0.0,0.0,92,0.00,,,0.11,weatherlink.com 1.10,2013-05-29 22:22:00,
2013-05-29 18:37:00,56.3,54.0,30.01,WNW,291,0.0,0.0,93,0.00,,,0.11,weatherlink.com 1.10,2013-05-29 22:37:00,
2013-05-29 18:52:00,56.1,54.0,30.00,WNW,291,0.0,0.0,93,0.00,,,0.11,weatherlink.com 1.10,2013-05-29 22:52:00,
2013-05-29 19:07:00,56.2,54.0,30.00,WNW,291,0.0,0.0,93,0.00,,,0.11,weatherlink.com 1.10,2013-05-29 23:07:00,
2013-05-29 19:22:00,56.2,54.0,30.01,WNW,291,0.0,0.0,93,0.00,,,0.11,weatherlink.com 1.10,2013-05-29 23:22:00,
2013-05-29 19:37:00,56.2,54.0,30.00,WNW,291,0.0,0.0,93,0.00,,,0.11,weatherlink.com 1.10,2013-05-29 23:37:00,
2013-05-29 19:52:00,56.0,54.0,30.00,WNW,291,0.0,0.0,94,0.00,,,0.11,weatherlink.com 1.10,2013-05-29 23:52:00,
2013-05-29 20:07:00,56.0,54.0,30.01,WNW,291,0.0,0.0,94,0.00,,,0.11,weatherlink.com 1.10,2013-05-30 00:07:00,
2013-05-29 20:22:00,55.8,54.0,29.99,WNW,291,0.0,0.0,94,0.00,,,0.11,weatherlink.com 1.10,2013-05-30 00:22:00,
2013-05-29 20:37:00,55.7,54.0,29.99,WNW,291,0.0,0.0,95,0.00,,,0.11,weatherlink.com 1.10,2013-05-30 00:37:00,
2013-05-29 20:51:00,55.6,54.0,29.99,WNW,291,0.0,0.0,95,0.00,,,0.11,weatherlink.com 1.10,2013-05-30 00:51:00,
2013-05-29 21:07:00,55.5,54.0,29.99,WNW,291,0.0,0.0,95,0.00,,,0.11,weatherlink.com 1.10,2013-05-30 01:07:00,
2013-05-29 21:22:00,55.6,55.0,29.98,WNW,291,0.0,0.0,96,0.00,,,0.11,weatherlink.com 1.10,2013-05-30 01:22:00,
2013-05-29 21:37:00,55.5,54.0,29.99,WNW,291,0.0,0.0,96,0.00,,,0.11,weatherlink.com 1.10,2013-05-30 01:37:00,
2013-05-29 21:52:00,55.5,54.0,29.98,WNW,291,0.0,0.0,96,0.00,,,0.11,weatherlink.com 1.10,2013-05-30 01:52:00,
2013-05-29 22:07:00,55.3,54.0,29.99,WNW,291,0.0,0.0,96,0.00,,,0.11,weatherlink.com 1.10,2013-05-30 02:07:00,
2013-05-29 22:22:00,55.4,54.0,29.98,WNW,291,0.0,0.0,96,0.00,,,0.11,weatherlink.com 1.10,2013-05-30 02:22:00,
2013-05-29 22:37:00,55.1,54.0,29.98,WNW,291,0.0,0.0,96,0.00,,,0.11,weatherlink.com 1.10,2013-05-30 02:37:00,
2013-05-29 22:52:00,55.1,54.0,29.97,WNW,291,0.0,0.0,97,0.00,,,0.11,weatherlink.com 1.10,2013-05-30 02:52:00,
2013-05-29 23:07:00,55.2,54.0,29.98,WNW,291,0.0,0.0,97,0.00,,,0.11,weatherlink.com 1.10,2013-05-30 03:07:00,
2013-05-29 23:22:00,55.3,55.0,29.98,WNW,286,0.0,1.0,97,0.00,,,0.11,weatherlink.com 1.10,2013-05-30 03:22:00,
2013-05-29 23:37:00,55.3,55.0,29.98,WNW,286,0.0,0.0,97,0.00,,,0.11,weatherlink.com 1.10,2013-05-30 03:37:00,
2013-05-29 23:52:00,55.4,55.0,29.98,WNW,286,0.0,0.0,97,0.00,,,0.11,weatherlink.com 1.10,2013-05-30 03:52:00,